{"data":{"norad_id":52336,"epoch":"2026-05-24T22:09:02.831616Z","epoch_age_seconds":71845,"freshness":"FRESH","line1":"1 52336U 22045F   26144.92294944  .00002552  00000+0  17847-3 0  9995","line2":"2 52336  53.2126 226.6925 0001559  89.2778 270.8393 15.08821119227158","mean_motion":15.08821119,"eccentricity":0.0001559,"inclination_deg":53.2126,"raan_deg":226.6925,"arg_perigee_deg":89.2778,"mean_anomaly_deg":270.8393,"bstar":0.00017847,"rev_number":22715,"period_min":95.438748958815,"perigee_km":538.72259467949,"apogee_km":540.87960777945,"semimajor_km":6917.9381012295,"source":"CELESTRAK","updated_at":"2026-05-25T13:38:17.113419Z"}}